Date_Time,Julian_Date,Latitude,Longitude,Instrument_Depth,U,V,Speed,Direction
(yyyy-mm-dd hh:mn:ss UTC),(JD),(+ deg. North),(+ deg. East),(m),(cm/s),(cm/s),(cm/s),(deg True)
1982-04-01 20:00:00 UTC,2445061.333333,29.6417,-93.6667,0037,4.36,-6.71,8.0000,147.0000
1982-04-01 20:30:00 UTC,2445061.354167,29.6417,-93.6667,0037,6.04,-5.25,8.0000,131.0000
1982-04-01 21:00:00 UTC,2445061.375000,29.6417,-93.6667,0037,4.73,-3.69,6.0000,128.0000
1982-04-01 21:30:00 UTC,2445061.395833,29.6417,-93.6667,0037,2.18,-3.35,4.0000,147.0000
1982-04-01 22:00:00 UTC,2445061.416667,29.6417,-93.6667,0037,-0.31,-0.95,1.0000,198.0000
1982-04-01 22:30:00 UTC,2445061.437500,29.6417,-93.6667,0037,0.03,2.00,2.0000,1.0000
1982-04-01 23:00:00 UTC,2445061.458333,29.6417,-93.6667,0037,1.24,3.80,4.0000,18.0000
1982-04-01 23:30:00 UTC,2445061.479167,29.6417,-93.6667,0037,1.95,4.60,5.0000,23.0000
1982-04-02 00:00:00 UTC,2445061.500000,29.6417,-93.6667,0037,2.87,4.10,5.0000,35.0000
1982-04-02 00:30:00 UTC,2445061.520833,29.6417,-93.6667,0037,2.33,1.89,3.0000,51.0000
1982-04-02 01:00:00 UTC,2445061.541667,29.6417,-93.6667,0037,1.55,1.26,2.0000,51.0000
1982-04-02 01:30:00 UTC,2445061.562500,29.6417,-93.6667,0037,0.10,0.99,1.0000,6.0000
1982-04-02 02:00:00 UTC,2445061.583333,29.6417,-93.6667,0037,-0.93,2.85,3.0000,342.0000
1982-04-02 02:30:00 UTC,2445061.604167,29.6417,-93.6667,0037,-1.87,4.64,5.0000,338.0000
1982-04-02 03:00:00 UTC,2445061.625000,29.6417,-93.6667,0037,-3.38,7.25,8.0000,335.0000
1982-04-02 03:30:00 UTC,2445061.645833,29.6417,-93.6667,0037,-4.65,9.97,11.0000,335.0000
1982-04-02 04:00:00 UTC,2445061.666667,29.6417,-93.6667,0037,-4.79,13.16,14.0000,340.0000
1982-04-02 04:30:00 UTC,2445061.687500,29.6417,-93.6667,0037,-3.15,13.64,14.0000,347.0000
1982-04-02 05:00:00 UTC,2445061.708333,29.6417,-93.6667,0037,-1.46,11.91,12.0000,353.0000
1982-04-02 05:30:00 UTC,2445061.729167,29.6417,-93.6667,0037,0.00,0.00,0.0000,0.0000
1982-04-02 06:00:00 UTC,2445061.750000,29.6417,-93.6667,0037,0.56,7.98,8.0000,4.0000
1982-04-02 06:30:00 UTC,2445061.770833,29.6417,-93.6667,0037,0.63,5.97,6.0000,6.0000
1982-04-02 07:00:00 UTC,2445061.791667,29.6417,-93.6667,0037,0.83,3.91,4.0000,12.0000
1982-04-02 07:30:00 UTC,2445061.812500,29.6417,-93.6667,0037,0.58,1.91,2.0000,17.0000
1982-04-02 08:00:00 UTC,2445061.833333,29.6417,-93.6667,0037,0.00,0.00,0.0000,14.0000
1982-04-02 08:30:00 UTC,2445061.854167,29.6417,-93.6667,0037,0.03,1.00,1.0000,2.0000
1982-04-02 09:00:00 UTC,2445061.875000,29.6417,-93.6667,0037,0.03,1.00,1.0000,2.0000
1982-04-02 09:30:00 UTC,2445061.895833,29.6417,-93.6667,0037,0.36,-0.93,1.0000,159.0000
1982-04-02 10:00:00 UTC,2445061.916667,29.6417,-93.6667,0037,0.56,-3.96,4.0000,172.0000
1982-04-02 10:30:00 UTC,2445061.937500,29.6417,-93.6667,0037,-0.84,-5.94,6.0000,188.0000
1982-04-02 11:00:00 UTC,2445061.958333,29.6417,-93.6667,0037,-2.28,-6.62,7.0000,199.0000
1982-04-02 11:30:00 UTC,2445061.979167,29.6417,-93.6667,0037,-0.78,-4.94,5.0000,189.0000
1982-04-02 12:00:00 UTC,2445062.000000,29.6417,-93.6667,0037,2.73,-2.93,4.0000,137.0000
1982-04-02 12:30:00 UTC,2445062.020833,29.6417,-93.6667,0037,5.67,-1.95,6.0000,109.0000
1982-04-02 13:00:00 UTC,2445062.041667,29.6417,-93.6667,0037,6.79,-1.69,7.0000,104.0000
1982-04-02 13:30:00 UTC,2445062.062500,29.6417,-93.6667,0037,7.83,-1.66,8.0000,102.0000
1982-04-02 14:00:00 UTC,2445062.083333,29.6417,-93.6667,0037,7.76,-1.94,8.0000,104.0000
1982-04-02 14:30:00 UTC,2445062.104167,29.6417,-93.6667,0037,3.61,-4.79,6.0000,143.0000
1982-04-02 15:00:00 UTC,2445062.125000,29.6417,-93.6667,0037,-4.65,-9.97,11.0000,205.0000
1982-04-02 15:30:00 UTC,2445062.145833,29.6417,-93.6667,0037,-9.63,-12.78,16.0000,217.0000
1982-04-02 16:00:00 UTC,2445062.166667,29.6417,-93.6667,0037,-10.32,-14.74,18.0000,215.0000
1982-04-02 16:30:00 UTC,2445062.187500,29.6417,-93.6667,0037,-9.54,-15.26,18.0000,212.0000
1982-04-02 17:00:00 UTC,2445062.208333,29.6417,-93.6667,0037,-8.92,-16.78,19.0000,208.0000
1982-04-02 17:30:00 UTC,2445062.229167,29.6417,-93.6667,0037,-8.63,-16.93,19.0000,207.0000
1982-04-02 18:00:00 UTC,2445062.250000,29.6417,-93.6667,0037,-8.92,-16.78,19.0000,208.0000
1982-04-02 18:30:00 UTC,2445062.270833,29.6417,-93.6667,0037,-8.33,-17.08,19.0000,206.0000
1982-04-02 19:00:00 UTC,2445062.291667,29.6417,-93.6667,0037,-6.50,-17.85,19.0000,200.0000
1982-04-02 19:30:00 UTC,2445062.312500,29.6417,-93.6667,0037,-4.84,-19.41,20.0000,194.0000
1982-04-02 20:00:00 UTC,2445062.333333,29.6417,-93.6667,0037,-4.72,-20.46,21.0000,193.0000
1982-04-02 20:30:00 UTC,2445062.354167,29.6417,-93.6667,0037,-6.62,-23.07,24.0000,196.0000
1982-04-02 21:00:00 UTC,2445062.375000,29.6417,-93.6667,0037,-8.55,-23.49,25.0000,200.0000
1982-04-02 21:30:00 UTC,2445062.395833,29.6417,-93.6667,0037,-8.60,-22.41,24.0000,201.0000
1982-04-02 22:00:00 UTC,2445062.416667,29.6417,-93.6667,0037,-6.80,-20.92,22.0000,198.0000
1982-04-02 22:30:00 UTC,2445062.437500,29.6417,-93.6667,0037,-5.85,-19.13,20.0000,197.0000
1982-04-02 23:00:00 UTC,2445062.458333,29.6417,-93.6667,0037,-5.86,-17.02,18.0000,199.0000
1982-04-02 23:30:00 UTC,2445062.479167,29.6417,-93.6667,0037,-5.26,-17.21,18.0000,197.0000
1982-04-03 00:00:00 UTC,2445062.500000,29.6417,-93.6667,0037,-3.63,-18.65,19.0000,191.0000
1982-04-03 00:30:00 UTC,2445062.520833,29.6417,-93.6667,0037,-2.68,-21.84,22.0000,187.0000
1982-04-03 01:00:00 UTC,2445062.541667,29.6417,-93.6667,0037,-3.60,-22.72,23.0000,189.0000
1982-04-03 01:30:00 UTC,2445062.562500,29.6417,-93.6667,0037,-3.06,-21.79,22.0000,188.0000
1982-04-03 02:00:00 UTC,2445062.583333,29.6417,-93.6667,0037,-1.53,-21.95,22.0000,184.0000
1982-04-03 02:30:00 UTC,2445062.604167,29.6417,-93.6667,0037,-2.00,-22.91,23.0000,185.0000
1982-04-03 03:00:00 UTC,2445062.625000,29.6417,-93.6667,0037,-3.44,-21.73,22.0000,189.0000
1982-04-03 03:30:00 UTC,2445062.645833,29.6417,-93.6667,0037,-3.20,-22.78,23.0000,188.0000
1982-04-03 04:00:00 UTC,2445062.666667,29.6417,-93.6667,0037,-2.09,-23.91,24.0000,185.0000
1982-04-03 04:30:00 UTC,2445062.687500,29.6417,-93.6667,0037,-3.91,-24.69,25.0000,189.0000
1982-04-03 05:00:00 UTC,2445062.708333,29.6417,-93.6667,0037,-4.78,-22.50,23.0000,192.0000
1982-04-03 05:30:00 UTC,2445062.729167,29.6417,-93.6667,0037,-3.82,-21.67,22.0000,190.0000
1982-04-03 06:00:00 UTC,2445062.750000,29.6417,-93.6667,0037,-3.13,-19.75,20.0000,189.0000
1982-04-03 06:30:00 UTC,2445062.770833,29.6417,-93.6667,0037,-7.03,-16.57,18.0000,203.0000
1982-04-03 07:00:00 UTC,2445062.791667,29.6417,-93.6667,0037,-12.50,-12.95,18.0000,224.0000
1982-04-03 07:30:00 UTC,2445062.812500,29.6417,-93.6667,0037,-16.11,-10.07,19.0000,238.0000
1982-04-03 08:00:00 UTC,2445062.833333,29.6417,-93.6667,0037,-19.18,-8.54,21.0000,246.0000
1982-04-03 08:30:00 UTC,2445062.854167,29.6417,-93.6667,0037,-21.61,-7.87,23.0000,250.0000
1982-04-03 09:00:00 UTC,2445062.875000,29.6417,-93.6667,0037,-22.95,-7.02,24.0000,253.0000
1982-04-03 09:30:00 UTC,2445062.895833,29.6417,-93.6667,0037,-23.29,-5.81,24.0000,256.0000
1982-04-03 10:00:00 UTC,2445062.916667,29.6417,-93.6667,0037,-20.38,-5.08,21.0000,256.0000
1982-04-03 10:30:00 UTC,2445062.937500,29.6417,-93.6667,0037,-17.30,-4.96,18.0000,254.0000
1982-04-03 11:00:00 UTC,2445062.958333,29.6417,-93.6667,0037,-17.54,-4.05,18.0000,257.0000
1982-04-03 11:30:00 UTC,2445062.979167,29.6417,-93.6667,0037,-20.92,-1.83,21.0000,265.0000
1982-04-03 12:00:00 UTC,2445063.000000,29.6417,-93.6667,0037,-22.91,2.00,23.0000,275.0000
1982-04-03 12:30:00 UTC,2445063.020833,29.6417,-93.6667,0037,-23.56,4.58,24.0000,281.0000
1982-04-03 13:00:00 UTC,2445063.041667,29.6417,-93.6667,0037,-21.35,5.32,22.0000,284.0000
1982-04-03 13:30:00 UTC,2445063.062500,29.6417,-93.6667,0037,-16.57,7.03,18.0000,293.0000
1982-04-03 14:00:00 UTC,2445063.083333,29.6417,-93.6667,0037,-11.03,8.62,14.0000,308.0000
1982-04-03 14:30:00 UTC,2445063.104167,29.6417,-93.6667,0037,-7.05,9.71,12.0000,324.0000
1982-04-03 15:00:00 UTC,2445063.125000,29.6417,-93.6667,0037,-4.99,9.80,11.0000,333.0000
1982-04-03 15:30:00 UTC,2445063.145833,29.6417,-93.6667,0037,-5.50,9.53,11.0000,330.0000
1982-04-03 16:00:00 UTC,2445063.166667,29.6417,-93.6667,0037,-7.22,9.58,12.0000,323.0000
1982-04-03 16:30:00 UTC,2445063.187500,29.6417,-93.6667,0037,-9.00,10.72,14.0000,320.0000
1982-04-03 17:00:00 UTC,2445063.208333,29.6417,-93.6667,0037,-9.84,11.32,15.0000,319.0000
1982-04-03 17:30:00 UTC,2445063.229167,29.6417,-93.6667,0037,-10.23,10.97,15.0000,317.0000
1982-04-03 18:00:00 UTC,2445063.250000,29.6417,-93.6667,0037,-10.97,10.23,15.0000,313.0000
1982-04-03 18:30:00 UTC,2445063.270833,29.6417,-93.6667,0037,-14.56,10.58,18.0000,306.0000
1982-04-03 19:00:00 UTC,2445063.291667,29.6417,-93.6667,0037,-17.81,11.13,21.0000,302.0000
1982-04-03 19:30:00 UTC,2445063.312500,29.6417,-93.6667,0037,-18.66,11.66,22.0000,302.0000
1982-04-03 20:00:00 UTC,2445063.333333,29.6417,-93.6667,0037,-16.77,12.64,21.0000,307.0000
1982-04-03 20:30:00 UTC,2445063.354167,29.6417,-93.6667,0037,-15.32,12.86,20.0000,310.0000
1982-04-03 21:00:00 UTC,2445063.375000,29.6417,-93.6667,0037,-15.37,11.17,19.0000,306.0000
1982-04-03 21:30:00 UTC,2445063.395833,29.6417,-93.6667,0037,-17.22,8.03,19.0000,295.0000
1982-04-03 22:00:00 UTC,2445063.416667,29.6417,-93.6667,0037,-19.56,4.16,20.0000,282.0000
1982-04-03 22:30:00 UTC,2445063.437500,29.6417,-93.6667,0037,-19.81,2.78,20.0000,278.0000
1982-04-03 23:00:00 UTC,2445063.458333,29.6417,-93.6667,0037,-17.61,3.74,18.0000,282.0000
1982-04-03 23:30:00 UTC,2445063.479167,29.6417,-93.6667,0037,-15.38,4.41,16.0000,286.0000
1982-04-04 00:00:00 UTC,2445063.500000,29.6417,-93.6667,0037,-13.92,1.46,14.0000,276.0000
1982-04-04 00:30:00 UTC,2445063.520833,29.6417,-93.6667,0037,-13.64,-3.15,14.0000,257.0000
1982-04-04 01:00:00 UTC,2445063.541667,29.6417,-93.6667,0037,-12.36,-6.57,14.0000,242.0000
1982-04-04 01:30:00 UTC,2445063.562500,29.6417,-93.6667,0037,-11.82,-9.23,15.0000,232.0000
1982-04-04 02:00:00 UTC,2445063.583333,29.6417,-93.6667,0037,-12.63,-11.38,17.0000,228.0000
1982-04-04 02:30:00 UTC,2445063.604167,29.6417,-93.6667,0037,-13.90,-12.96,19.0000,227.0000
1982-04-04 03:00:00 UTC,2445063.625000,29.6417,-93.6667,0037,-14.39,-13.89,20.0000,226.0000
1982-04-04 03:30:00 UTC,2445063.645833,29.6417,-93.6667,0037,-15.09,-13.12,20.0000,229.0000
1982-04-04 04:00:00 UTC,2445063.666667,29.6417,-93.6667,0037,-16.45,-9.50,19.0000,240.0000
1982-04-04 04:30:00 UTC,2445063.687500,29.6417,-93.6667,0037,-17.02,-5.86,18.0000,251.0000
1982-04-04 05:00:00 UTC,2445063.708333,29.6417,-93.6667,0037,-18.77,-2.97,19.0000,261.0000
1982-04-04 05:30:00 UTC,2445063.729167,29.6417,-93.6667,0037,-19.97,1.05,20.0000,273.0000
1982-04-04 06:00:00 UTC,2445063.750000,29.6417,-93.6667,0037,-19.75,3.13,20.0000,279.0000
1982-04-04 06:30:00 UTC,2445063.770833,29.6417,-93.6667,0037,-17.78,2.82,18.0000,279.0000
1982-04-04 07:00:00 UTC,2445063.791667,29.6417,-93.6667,0037,-15.59,3.60,16.0000,283.0000
1982-04-04 07:30:00 UTC,2445063.812500,29.6417,-93.6667,0037,-14.34,4.39,15.0000,287.0000
1982-04-04 08:00:00 UTC,2445063.833333,29.6417,-93.6667,0037,-12.56,3.36,13.0000,285.0000
1982-04-04 08:30:00 UTC,2445063.854167,29.6417,-93.6667,0037,-11.54,3.31,12.0000,286.0000
1982-04-04 09:00:00 UTC,2445063.875000,29.6417,-93.6667,0037,-8.16,3.80,9.0000,295.0000
1982-04-04 09:30:00 UTC,2445063.895833,29.6417,-93.6667,0037,-4.05,2.94,5.0000,306.0000
1982-04-04 10:00:00 UTC,2445063.916667,29.6417,-93.6667,0037,-0.99,0.12,1.0000,277.0000
1982-04-04 10:30:00 UTC,2445063.937500,29.6417,-93.6667,0037,-1.29,-1.53,2.0000,220.0000
1982-04-04 11:00:00 UTC,2445063.958333,29.6417,-93.6667,0037,-1.63,-2.52,3.0000,213.0000
1982-04-04 11:30:00 UTC,2445063.979167,29.6417,-93.6667,0037,-0.24,-1.99,2.0000,187.0000
1982-04-04 12:00:00 UTC,2445064.000000,29.6417,-93.6667,0037,1.31,-1.51,2.0000,139.0000
1982-04-04 12:30:00 UTC,2445064.020833,29.6417,-93.6667,0037,3.28,-2.29,4.0000,125.0000
1982-04-04 13:00:00 UTC,2445064.041667,29.6417,-93.6667,0037,2.78,-2.88,4.0000,136.0000
1982-04-04 13:30:00 UTC,2445064.062500,29.6417,-93.6667,0037,1.63,-3.65,4.0000,156.0000
1982-04-04 14:00:00 UTC,2445064.083333,29.6417,-93.6667,0037,-0.76,-3.93,4.0000,191.0000
1982-04-04 14:30:00 UTC,2445064.104167,29.6417,-93.6667,0037,-5.73,-4.02,7.0000,235.0000
1982-04-04 15:00:00 UTC,2445064.125000,29.6417,-93.6667,0037,-13.74,-2.67,14.0000,259.0000
1982-04-04 15:30:00 UTC,2445064.145833,29.6417,-93.6667,0037,-21.99,-0.77,22.0000,268.0000
1982-04-04 16:00:00 UTC,2445064.166667,29.6417,-93.6667,0037,-26.98,0.94,27.0000,272.0000
1982-04-04 16:30:00 UTC,2445064.187500,29.6417,-93.6667,0037,-28.93,2.02,29.0000,274.0000
1982-04-04 17:00:00 UTC,2445064.208333,29.6417,-93.6667,0037,-30.92,2.16,31.0000,274.0000
1982-04-04 17:30:00 UTC,2445064.229167,29.6417,-93.6667,0037,-32.87,2.88,33.0000,275.0000
1982-04-04 18:00:00 UTC,2445064.250000,29.6417,-93.6667,0037,-35.80,3.76,36.0000,276.0000
1982-04-04 18:30:00 UTC,2445064.270833,29.6417,-93.6667,0037,-37.91,2.65,38.0000,274.0000
1982-04-04 19:00:00 UTC,2445064.291667,29.6417,-93.6667,0037,-38.99,0.68,39.0000,271.0000
1982-04-04 19:30:00 UTC,2445064.312500,29.6417,-93.6667,0037,-38.99,-0.68,39.0000,269.0000
1982-04-04 20:00:00 UTC,2445064.333333,29.6417,-93.6667,0037,-40.00,-0.00,40.0000,270.0000
1982-04-04 20:30:00 UTC,2445064.354167,29.6417,-93.6667,0037,-39.99,-0.70,40.0000,269.0000
1982-04-04 21:00:00 UTC,2445064.375000,29.6417,-93.6667,0037,-37.91,-2.65,38.0000,266.0000
1982-04-04 21:30:00 UTC,2445064.395833,29.6417,-93.6667,0037,-37.79,-3.97,38.0000,264.0000
1982-04-04 22:00:00 UTC,2445064.416667,29.6417,-93.6667,0037,-40.78,-4.29,41.0000,264.0000
1982-04-04 22:30:00 UTC,2445064.437500,29.6417,-93.6667,0037,-42.90,-3.00,43.0000,266.0000
1982-04-04 23:00:00 UTC,2445064.458333,29.6417,-93.6667,0037,-43.94,-2.30,44.0000,267.0000
1982-04-04 23:30:00 UTC,2445064.479167,29.6417,-93.6667,0037,-41.90,-2.93,42.0000,266.0000
1982-04-05 00:00:00 UTC,2445064.500000,29.6417,-93.6667,0037,-38.71,-4.75,39.0000,263.0000
1982-04-05 00:30:00 UTC,2445064.520833,29.6417,-93.6667,0037,-36.64,-5.15,37.0000,262.0000
1982-04-05 01:00:00 UTC,2445064.541667,29.6417,-93.6667,0037,-35.80,-3.76,36.0000,264.0000
1982-04-05 01:30:00 UTC,2445064.562500,29.6417,-93.6667,0037,-35.73,-4.39,36.0000,263.0000
1982-04-05 02:00:00 UTC,2445064.583333,29.6417,-93.6667,0037,-34.74,-4.27,35.0000,263.0000
1982-04-05 02:30:00 UTC,2445064.604167,29.6417,-93.6667,0037,-33.87,-2.96,34.0000,265.0000
1982-04-05 03:00:00 UTC,2445064.625000,29.6417,-93.6667,0037,-32.98,-1.15,33.0000,268.0000
1982-04-05 03:30:00 UTC,2445064.645833,29.6417,-93.6667,0037,-33.00,-0.00,33.0000,270.0000
1982-04-05 04:00:00 UTC,2445064.666667,29.6417,-93.6667,0037,-32.00,-0.00,32.0000,270.0000
1982-04-05 04:30:00 UTC,2445064.687500,29.6417,-93.6667,0037,-30.96,-1.62,31.0000,267.0000
1982-04-05 05:00:00 UTC,2445064.708333,29.6417,-93.6667,0037,-33.75,-4.14,34.0000,263.0000
1982-04-05 05:30:00 UTC,2445064.729167,29.6417,-93.6667,0037,-38.71,-4.75,39.0000,263.0000
1982-04-05 06:00:00 UTC,2445064.750000,29.6417,-93.6667,0037,-39.85,-3.49,40.0000,265.0000
1982-04-05 06:30:00 UTC,2445064.770833,29.6417,-93.6667,0037,-36.80,-3.87,37.0000,264.0000
1982-04-05 07:00:00 UTC,2445064.791667,29.6417,-93.6667,0037,-34.74,-4.27,35.0000,263.0000
1982-04-05 07:30:00 UTC,2445064.812500,29.6417,-93.6667,0037,-33.67,-4.73,34.0000,262.0000
1982-04-05 08:00:00 UTC,2445064.833333,29.6417,-93.6667,0037,-30.53,-5.38,31.0000,260.0000
1982-04-05 08:30:00 UTC,2445064.854167,29.6417,-93.6667,0037,-27.28,-6.30,28.0000,257.0000
1982-04-05 09:00:00 UTC,2445064.875000,29.6417,-93.6667,0037,-26.08,-6.99,27.0000,255.0000
1982-04-05 09:30:00 UTC,2445064.895833,29.6417,-93.6667,0037,-24.26,-6.05,25.0000,256.0000
1982-04-05 10:00:00 UTC,2445064.916667,29.6417,-93.6667,0037,-23.48,-4.99,24.0000,258.0000
1982-04-05 10:30:00 UTC,2445064.937500,29.6417,-93.6667,0037,-23.56,-4.58,24.0000,259.0000
1982-04-05 11:00:00 UTC,2445064.958333,29.6417,-93.6667,0037,-25.75,-3.62,26.0000,262.0000
1982-04-05 11:30:00 UTC,2445064.979167,29.6417,-93.6667,0037,-26.90,-2.35,27.0000,265.0000
1982-04-05 12:00:00 UTC,2445065.000000,29.6417,-93.6667,0037,-23.94,-1.67,24.0000,266.0000
1982-04-05 12:30:00 UTC,2445065.020833,29.6417,-93.6667,0037,-20.00,-0.35,20.0000,269.0000
1982-04-05 13:00:00 UTC,2445065.041667,29.6417,-93.6667,0037,-18.97,0.99,19.0000,273.0000
1982-04-05 13:30:00 UTC,2445065.062500,29.6417,-93.6667,0037,-19.89,2.09,20.0000,276.0000
1982-04-05 14:00:00 UTC,2445065.083333,29.6417,-93.6667,0037,-21.67,3.82,22.0000,280.0000
1982-04-05 14:30:00 UTC,2445065.104167,29.6417,-93.6667,0037,-23.48,4.99,24.0000,282.0000
1982-04-05 15:00:00 UTC,2445065.125000,29.6417,-93.6667,0037,-23.64,4.17,24.0000,280.0000
1982-04-05 15:30:00 UTC,2445065.145833,29.6417,-93.6667,0037,-25.81,3.17,26.0000,277.0000
1982-04-05 16:00:00 UTC,2445065.166667,29.6417,-93.6667,0037,-30.70,4.31,31.0000,278.0000
1982-04-05 16:30:00 UTC,2445065.187500,29.6417,-93.6667,0037,-32.50,5.73,33.0000,280.0000
1982-04-05 17:00:00 UTC,2445065.208333,29.6417,-93.6667,0037,-31.18,7.20,32.0000,283.0000
1982-04-05 17:30:00 UTC,2445065.229167,29.6417,-93.6667,0037,-28.98,7.76,30.0000,285.0000
1982-04-05 18:00:00 UTC,2445065.250000,29.6417,-93.6667,0037,-25.95,7.44,27.0000,286.0000
1982-04-05 18:30:00 UTC,2445065.270833,29.6417,-93.6667,0037,-23.91,7.31,25.0000,287.0000
1982-04-05 19:00:00 UTC,2445065.291667,29.6417,-93.6667,0037,-23.07,6.62,24.0000,286.0000
1982-04-05 19:30:00 UTC,2445065.312500,29.6417,-93.6667,0037,-23.18,6.21,24.0000,285.0000
1982-04-05 20:00:00 UTC,2445065.333333,29.6417,-93.6667,0037,-22.32,5.56,23.0000,284.0000
1982-04-05 20:30:00 UTC,2445065.354167,29.6417,-93.6667,0037,-18.58,3.95,19.0000,282.0000
1982-04-05 21:00:00 UTC,2445065.375000,29.6417,-93.6667,0037,-18.86,2.32,19.0000,277.0000
1982-04-05 21:30:00 UTC,2445065.395833,29.6417,-93.6667,0037,-21.92,1.92,22.0000,275.0000
1982-04-05 22:00:00 UTC,2445065.416667,29.6417,-93.6667,0037,-22.83,2.80,23.0000,277.0000
1982-04-05 22:30:00 UTC,2445065.437500,29.6417,-93.6667,0037,-19.32,5.18,20.0000,285.0000
1982-04-05 23:00:00 UTC,2445065.458333,29.6417,-93.6667,0037,-15.28,7.45,17.0000,296.0000
1982-04-05 23:30:00 UTC,2445065.479167,29.6417,-93.6667,0037,-11.82,9.23,15.0000,308.0000
1982-04-06 00:00:00 UTC,2445065.500000,29.6417,-93.6667,0037,-8.53,9.81,13.0000,319.0000
1982-04-06 00:30:00 UTC,2445065.520833,29.6417,-93.6667,0037,-6.71,9.95,12.0000,326.0000
1982-04-06 01:00:00 UTC,2445065.541667,29.6417,-93.6667,0037,-4.50,11.13,12.0000,338.0000
1982-04-06 01:30:00 UTC,2445065.562500,29.6417,-93.6667,0037,-1.58,12.90,13.0000,353.0000
1982-04-06 02:00:00 UTC,2445065.583333,29.6417,-93.6667,0037,1.57,14.92,15.0000,6.0000
1982-04-06 02:30:00 UTC,2445065.604167,29.6417,-93.6667,0037,3.53,16.63,17.0000,12.0000
1982-04-06 03:00:00 UTC,2445065.625000,29.6417,-93.6667,0037,3.82,16.56,17.0000,13.0000
1982-04-06 03:30:00 UTC,2445065.645833,29.6417,-93.6667,0037,3.13,17.73,18.0000,10.0000
1982-04-06 04:00:00 UTC,2445065.666667,29.6417,-93.6667,0037,0.59,16.99,17.0000,2.0000
1982-04-06 04:30:00 UTC,2445065.687500,29.6417,-93.6667,0037,-3.91,11.35,12.0000,341.0000
1982-04-06 05:00:00 UTC,2445065.708333,29.6417,-93.6667,0037,-8.09,5.88,10.0000,306.0000
1982-04-06 05:30:00 UTC,2445065.729167,29.6417,-93.6667,0037,-11.35,3.91,12.0000,289.0000
1982-04-06 06:00:00 UTC,2445065.750000,29.6417,-93.6667,0037,-14.67,3.12,15.0000,282.0000
1982-04-06 06:30:00 UTC,2445065.770833,29.6417,-93.6667,0037,-15.98,0.84,16.0000,273.0000
1982-04-06 07:00:00 UTC,2445065.791667,29.6417,-93.6667,0037,-16.91,-1.78,17.0000,264.0000
1982-04-06 07:30:00 UTC,2445065.812500,29.6417,-93.6667,0037,-19.70,-3.47,20.0000,260.0000
1982-04-06 08:00:00 UTC,2445065.833333,29.6417,-93.6667,0037,-21.79,-3.06,22.0000,262.0000
1982-04-06 08:30:00 UTC,2445065.854167,29.6417,-93.6667,0037,-22.78,-3.20,23.0000,262.0000
1982-04-06 09:00:00 UTC,2445065.875000,29.6417,-93.6667,0037,-21.73,-3.44,22.0000,261.0000
1982-04-06 09:30:00 UTC,2445065.895833,29.6417,-93.6667,0037,-21.60,-4.20,22.0000,259.0000
1982-04-06 10:00:00 UTC,2445065.916667,29.6417,-93.6667,0037,-20.54,-4.37,21.0000,258.0000
1982-04-06 10:30:00 UTC,2445065.937500,29.6417,-93.6667,0037,-19.70,-3.47,20.0000,260.0000
1982-04-06 11:00:00 UTC,2445065.958333,29.6417,-93.6667,0037,-18.90,-1.99,19.0000,264.0000
1982-04-06 11:30:00 UTC,2445065.979167,29.6417,-93.6667,0037,-19.97,-1.05,20.0000,267.0000
1982-04-06 12:00:00 UTC,2445066.000000,29.6417,-93.6667,0037,-21.00,-0.00,21.0000,270.0000
1982-04-06 12:30:00 UTC,2445066.020833,29.6417,-93.6667,0037,-22.87,2.40,23.0000,276.0000
1982-04-06 13:00:00 UTC,2445066.041667,29.6417,-93.6667,0037,-24.62,4.34,25.0000,280.0000
1982-04-06 13:30:00 UTC,2445066.062500,29.6417,-93.6667,0037,-27.49,5.34,28.0000,281.0000
1982-04-06 14:00:00 UTC,2445066.083333,29.6417,-93.6667,0037,-28.56,5.04,29.0000,280.0000
1982-04-06 14:30:00 UTC,2445066.104167,29.6417,-93.6667,0037,-27.73,3.90,28.0000,278.0000
1982-04-06 15:00:00 UTC,2445066.125000,29.6417,-93.6667,0037,-28.84,3.03,29.0000,276.0000
1982-04-06 15:30:00 UTC,2445066.145833,29.6417,-93.6667,0037,-32.82,3.45,33.0000,276.0000
1982-04-06 16:00:00 UTC,2445066.166667,29.6417,-93.6667,0037,-36.91,2.58,37.0000,274.0000
1982-04-06 16:30:00 UTC,2445066.187500,29.6417,-93.6667,0037,-41.94,2.20,42.0000,273.0000
1982-04-06 17:00:00 UTC,2445066.208333,29.6417,-93.6667,0037,-46.00,-0.00,46.0000,270.0000
1982-04-06 17:30:00 UTC,2445066.229167,29.6417,-93.6667,0037,-48.97,-1.71,49.0000,268.0000
1982-04-06 18:00:00 UTC,2445066.250000,29.6417,-93.6667,0037,-49.97,-1.75,50.0000,268.0000
1982-04-06 18:30:00 UTC,2445066.270833,29.6417,-93.6667,0037,-50.97,-1.78,51.0000,268.0000
1982-04-06 19:00:00 UTC,2445066.291667,29.6417,-93.6667,0037,-50.88,-3.56,51.0000,266.0000
1982-04-06 19:30:00 UTC,2445066.312500,29.6417,-93.6667,0037,-51.72,-5.44,52.0000,264.0000
1982-04-06 20:00:00 UTC,2445066.333333,29.6417,-93.6667,0037,-52.60,-6.46,53.0000,263.0000
1982-04-06 20:30:00 UTC,2445066.354167,29.6417,-93.6667,0037,-52.48,-7.38,53.0000,262.0000
1982-04-06 21:00:00 UTC,2445066.375000,29.6417,-93.6667,0037,-50.06,-9.73,51.0000,259.0000
1982-04-06 21:30:00 UTC,2445066.395833,29.6417,-93.6667,0037,-47.74,-11.02,49.0000,257.0000
1982-04-06 22:00:00 UTC,2445066.416667,29.6417,-93.6667,0037,-46.57,-11.61,48.0000,256.0000
1982-04-06 22:30:00 UTC,2445066.437500,29.6417,-93.6667,0037,-46.36,-12.42,48.0000,255.0000
1982-04-06 23:00:00 UTC,2445066.458333,29.6417,-93.6667,0037,-45.18,-12.96,47.0000,254.0000
1982-04-06 23:30:00 UTC,2445066.479167,29.6417,-93.6667,0037,-43.03,-13.16,45.0000,253.0000
1982-04-07 00:00:00 UTC,2445066.500000,29.6417,-93.6667,0037,-39.41,-11.30,41.0000,254.0000
1982-04-07 00:30:00 UTC,2445066.520833,29.6417,-93.6667,0037,-38.81,-9.68,40.0000,256.0000
1982-04-07 01:00:00 UTC,2445066.541667,29.6417,-93.6667,0037,-36.87,-9.19,38.0000,256.0000
1982-04-07 01:30:00 UTC,2445066.562500,29.6417,-93.6667,0037,-34.10,-7.87,35.0000,257.0000
1982-04-07 02:00:00 UTC,2445066.583333,29.6417,-93.6667,0037,-31.51,-5.56,32.0000,260.0000
1982-04-07 02:30:00 UTC,2445066.604167,29.6417,-93.6667,0037,-30.92,-2.16,31.0000,266.0000
1982-04-07 03:00:00 UTC,2445066.625000,29.6417,-93.6667,0037,-29.98,-1.05,30.0000,268.0000
1982-04-07 03:30:00 UTC,2445066.645833,29.6417,-93.6667,0037,-29.96,-1.57,30.0000,267.0000
1982-04-07 04:00:00 UTC,2445066.666667,29.6417,-93.6667,0037,-29.96,-1.57,30.0000,267.0000
1982-04-07 04:30:00 UTC,2445066.687500,29.6417,-93.6667,0037,-30.00,-0.00,30.0000,270.0000
1982-04-07 05:00:00 UTC,2445066.708333,29.6417,-93.6667,0037,-29.96,1.57,30.0000,273.0000
1982-04-07 05:30:00 UTC,2445066.729167,29.6417,-93.6667,0037,-29.93,2.09,30.0000,274.0000
1982-04-07 06:00:00 UTC,2445066.750000,29.6417,-93.6667,0037,-31.00,0.54,31.0000,271.0000
1982-04-07 06:30:00 UTC,2445066.770833,29.6417,-93.6667,0037,-31.00,-0.00,31.0000,270.0000
1982-04-07 07:00:00 UTC,2445066.791667,29.6417,-93.6667,0037,-31.00,-0.00,31.0000,270.0000
1982-04-07 07:30:00 UTC,2445066.812500,29.6417,-93.6667,0037,-31.00,-0.54,31.0000,269.0000